Find OneWeb SL0412

NORAD ID: 50489 Int'l Des: 2021-132 Owner: ONEWEBN Country: UK Constellation: oneweb operational
LEOCIRCULARPOLARONEWEB_TYPE

Current View

Loading 3D Globe...

About OneWeb SL0412

Description loading...

Upcoming Passes

Passes for default location (London). Set your location on the main map for personalized predictions.

Altitude History

Loading altitude history...

Two-Line Element Set

1 50489U 21132W 26149.51510576 .00000115 00000-0 25914-3 0 9998
2 50489 87.9166 339.1731 0001854 79.3468 280.7873 13.18688275219193
Epoch: May 29, 2026 • Age: 19 hours

Current Status

Altitude 1199.2 km
Velocity 7.26 km/s
Sub-Earth Point 61.01°N, 159.84°E
Launch Date Dec 27, 2021
Age 4.4 years
Type internet

Technical Details

Classification Payload
Mass 148.00 kg
Dry Mass 140.00 kg
Total Mass 148.00 kg
Length 1.30 m
Diameter 1.00 m
Span 5.00 m
Shape Trapezoid+2 pan
Manufacturer ONEWUS
Bus Type ARROW
Phase Status In Orbit
Owner/State ONEWEBN/UK

Most Searched